| time (UTC) | temp C | wind direction | speed KPH | gust KPH | rain 1hr cm | rain 24hr cm | rain mn cm | humidity % | barometer mb |
| 20260507031543 | 10 | 134 | 0.0 | 3.2 | 0.00 | 0.00 | 0.00 | 69 | 1017.1 |
| 20260507031038 | 11 | 194 | 0.0 | 4.8 | 0.00 | 0.00 | 0.00 | 69 | 1017.0 |
| 20260507030511 | 11 | 231 | 0.0 | 4.8 | 0.00 | 0.00 | 0.00 | 69 | 1016.9 |
| 20260507030008 | 11 | 117 | 0.0 | 1.6 | 0.00 | 0.00 | 0.00 | 68 | 1016.9 |
| 20260507025450 | 11 | 78 | 0.0 | 1.6 | 0.00 | 0.00 | 0.00 | 68 | 1016.7 |
| 20260507024923 | 11 | 178 | 1.6 | 4.8 | 0.00 | 0.00 | 0.00 | 68 | 1016.7 |
| 20260507024419 | 11 | 72 | 0.0 | 4.8 | 0.00 | 0.00 | 0.00 | 68 | 1016.6 |
| 20260507023919 | 11 | 77 | 0.0 | 3.2 | 0.00 | 0.00 | 0.00 | 69 | 1016.5 |
| 20260507023351 | 11 | 44 | 0.0 | 3.2 | 0.00 | 0.00 | 0.00 | 69 | 1016.5 |
| 20260507022848 | 11 | 119 | 0.0 | 1.6 | 0.00 | 0.00 | 0.00 | 69 | 1016.4 |
| 20260507022347 | 11 | 182 | 0.0 | 6.4 | 0.00 | 0.00 | 0.00 | 69 | 1016.4 |
| 20260507021831 | 11 | 254 | 0.0 | 6.4 | 0.00 | 0.00 | 0.00 | 69 | 1016.4 |
| 20260507021813 | 11 | 208 | 0.0 | 1.6 | 0.00 | 0.00 | 0.00 | 69 | 1016.3 |
| 20260507020806 | 11 | 188 | 0.0 | 1.6 | 0.00 | 0.00 | 0.00 | 68 | 1016.3 |
| 20260507020721 | 11 | 200 | 0.0 | 1.6 | 0.00 | 0.00 | 0.00 | 68 | 1016.3 |
| 20260507015735 | 12 | 131 | 0.0 | 1.6 | 0.00 | 0.00 | 0.00 | 67 | 1016.4 |
| 20260507015718 | 12 | 122 | 0.0 | 1.6 | 0.00 | 0.00 | 0.00 | 67 | 1016.3 |
| 20260507014729 | 12 | 121 | 0.0 | 1.6 | 0.00 | 0.00 | 0.00 | 66 | 1016.1 |
| 20260507014202 | 12 | 151 | 0.0 | 3.2 | 0.00 | 0.00 | 0.00 | 66 | 1016.2 |
| 20260507013656 | 12 | 97 | 0.0 | 3.2 | 0.00 | 0.00 | 0.00 | 65 | 1016.1 |
| 20260507013127 | 12 | 72 | 0.0 | 3.2 | 0.00 | 0.00 | 0.00 | 65 | 1015.9 |
| 20260507012623 | 13 | 86 | 0.0 | 3.2 | 0.00 | 0.00 | 0.00 | 64 | 1016.0 |
| 20260507012603 | 13 | 136 | 0.0 | 1.6 | 0.00 | 0.00 | 0.00 | 63 | 1015.9 |
| 20260507011558 | 13 | 219 | 0.0 | 3.2 | 0.00 | 0.00 | 0.00 | 63 | 1015.7 |
| 20260507011048 | 13 | 77 | 0.0 | 3.2 | 0.00 | 0.00 | 0.00 | 62 | 1015.8 |
| 20260507010547 | 14 | 98 | 0.0 | 3.2 | 0.00 | 0.00 | 0.00 | 61 | 1015.7 |
| 20260507010017 | 14 | 68 | 1.6 | 6.4 | 0.00 | 0.00 | 0.00 | 60 | 1015.7 |
| 20260507005516 | 15 | 101 | 1.6 | 6.4 | 0.00 | 0.00 | 0.00 | 59 | 1015.6 |
| 20260507005431 | 15 | 169 | 1.6 | 4.8 | 0.00 | 0.00 | 0.00 | 58 | 1015.5 |
| 20260507004444 | 15 | 49 | 1.6 | 8.0 | 0.00 | 0.00 | 0.00 | 57 | 1015.5 |
| 20260507003918 | 15 | 59 | 1.6 | 8.0 | 0.00 | 0.00 | 0.00 | 56 | 1015.6 |
| 20260507003415 | 16 | 21 | 1.6 | 9.7 | 0.00 | 0.00 | 0.00 | 56 | 1015.7 |
| 20260507002847 | 15 | 41 | 1.6 | 9.7 | 0.00 | 0.00 | 0.00 | 58 | 1015.7 |
| 20260507002340 | 15 | 63 | 1.6 | 9.7 | 0.00 | 0.00 | 0.00 | 57 | 1015.6 |
| 20260507001825 | 15 | 77 | 3.2 | 9.7 | 0.00 | 0.00 | 0.00 | 57 | 1015.5 |
| 20260507001329 | 15 | 27 | 3.2 | 8.0 | 0.00 | 0.00 | 0.00 | 55 | 1015.4 |
| 20260507000801 | 15 | 84 | 3.2 | 8.0 | 0.00 | 0.00 | 0.00 | 56 | 1015.4 |
| 20260507000259 | 15 | 38 | 4.8 | 11.3 | 0.00 | 0.00 | 0.00 | 55 | 1015.4 |
| 20260507000241 | 16 | 86 | 4.8 | 11.3 | 0.00 | 0.00 | 0.00 | 55 | 1015.5 |
| 20260506235254 | 16 | 106 | 4.8 | 11.3 | 0.00 | 0.00 | 0.00 | 56 | 1015.4 |
| 20260506234753 | 15 | 73 | 4.8 | 14.5 | 0.00 | 0.00 | 0.00 | 56 | 1015.4 |
| 20260506234740 | 15 | 47 | 4.8 | 14.5 | 0.00 | 0.00 | 0.00 | 56 | 1015.4 |
| 20260506233752 | 15 | 23 | 4.8 | 12.9 | 0.00 | 0.00 | 0.00 | 56 | 1015.4 |
| 20260506233254 | 15 | 6 | 3.2 | 8.0 | 0.00 | 0.00 | 0.00 | 57 | 1015.3 |
| 20260506232752 | 15 | 28 | 4.8 | 11.3 | 0.00 | 0.00 | 0.00 | 59 | 1015.3 |
| 20260506232730 | 15 | 61 | 4.8 | 11.3 | 0.00 | 0.00 | 0.00 | 57 | 1015.2 |
| 20260506231721 | 15 | 29 | 4.8 | 8.0 | 0.00 | 0.00 | 0.00 | 59 | 1015.3 |
| 20260506231219 | 15 | 18 | 4.8 | 11.3 | 0.00 | 0.00 | 0.00 | 58 | 1015.3 |
| 20260506230712 | 15 | 96 | 4.8 | 11.3 | 0.00 | 0.00 | 0.00 | 58 | 1015.2 |
| 20260506230208 | 15 | 41 | 4.8 | 14.5 | 0.00 | 0.00 | 0.00 | 59 | 1015.0 |
| 20260506225642 | 15 | 88 | 6.4 | 14.5 | 0.00 | 0.00 | 0.00 | 58 | 1014.9 |
| 20260506225138 | 15 | 141 | 4.8 | 14.5 | 0.00 | 0.00 | 0.00 | 59 | 1014.8 |
| 20260506224612 | 16 | 219 | 3.2 | 14.5 | 0.00 | 0.00 | 0.00 | 60 | 1014.8 |
| 20260506224057 | 15 | 89 | 3.2 | 9.7 | 0.00 | 0.00 | 0.00 | 60 | 1014.6 |
| 20260506224030 | 15 | 79 | 4.8 | 17.7 | 0.00 | 0.00 | 0.00 | 59 | 1014.3 |
| 20260506223028 | 15 | 273 | 6.4 | 17.7 | 0.00 | 0.00 | 0.00 | 58 | 1014.3 |
| 20260506222504 | 15 | 224 | 6.4 | 17.7 | 0.00 | 0.00 | 0.00 | 60 | 1014.2 |
| 20260506222005 | 15 | 33 | 6.4 | 17.7 | 0.00 | 0.00 | 0.00 | 58 | 1014.2 |
| 20260506221504 | 15 | 276 | 6.4 | 17.7 | 0.00 | 0.00 | 0.00 | 62 | 1014.2 |
| 20260506221002 | 15 | 71 | 6.4 | 17.7 | 0.00 | 0.00 | 0.00 | 60 | 1014.0 |
| 20260506220503 | 16 | 24 | 6.4 | 14.5 | 0.00 | 0.00 | 0.00 | 60 | 1014.2 |
| 20260506220000 | 16 | 231 | 4.8 | 14.5 | 0.00 | 0.00 | 0.00 | 61 | 1014.3 |
| 20260506215457 | 16 | 124 | 4.8 | 14.5 | 0.00 | 0.00 | 0.00 | 61 | 1014.5 |
| 20260506214932 | 15 | 117 | 4.8 | 9.7 | 0.00 | 0.00 | 0.00 | 61 | 1014.5 |
| 20260506214433 | 15 | 165 | 4.8 | 9.7 | 0.00 | 0.00 | 0.00 | 63 | 1014.5 |
| 20260506214343 | 15 | 141 | 6.4 | 11.3 | 0.00 | 0.00 | 0.00 | 62 | 1014.5 |
| 20260506213353 | 15 | 28 | 6.4 | 14.5 | 0.00 | 0.00 | 0.00 | 62 | 1014.6 |
| 20260506212851 | 15 | 133 | 4.8 | 16.1 | 0.00 | 0.00 | 0.00 | 61 | 1014.6 |
| 20260506212348 | 15 | 115 | 3.2 | 16.1 | 0.00 | 0.00 | 0.00 | 65 | 1014.7 |
| 20260506211819 | 15 | 113 | 4.8 | 14.5 | 0.00 | 0.00 | 0.00 | 64 | 1014.6 |
| 20260506211253 | 15 | 34 | 6.4 | 14.5 | 0.00 | 0.00 | 0.00 | 62 | 1014.6 |
| 20260506210725 | 15 | 45 | 6.4 | 12.9 | 0.00 | 0.00 | 0.00 | 63 | 1014.7 |
| 20260506210222 | 15 | 283 | 4.8 | 12.9 | 0.00 | 0.00 | 0.00 | 63 | 1014.8 |
| 20260506205655 | 15 | 32 | 4.8 | 14.5 | 0.00 | 0.00 | 0.00 | 64 | 1015.0 |
| 20260506205152 | 15 | 33 | 3.2 | 14.5 | 0.00 | 0.00 | 0.00 | 65 | 1015.0 |
| 20260506204640 | 15 | 89 | 6.4 | 14.5 | 0.00 | 0.00 | 0.00 | 63 | 1015.1 |
| 20260506204143 | 15 | 42 | 6.4 | 14.5 | 0.00 | 0.00 | 0.00 | 63 | 1015.0 |
| 20260506203620 | 15 | 85 | 6.4 | 12.9 | 0.00 | 0.00 | 0.00 | 65 | 1015.0 |
| 20260506203110 | 15 | 122 | 6.4 | 14.5 | 0.00 | 0.00 | 0.00 | 62 | 1015.2 |
| 20260506202557 | 15 | 18 | 6.4 | 14.5 | 0.00 | 0.00 | 0.00 | 62 | 1015.4 |
| 20260506202101 | 15 | 6 | 6.4 | 14.5 | 0.00 | 0.00 | 0.00 | 61 | 1015.4 |
| 20260506201533 | 15 | 25 | 4.8 | 14.5 | 0.00 | 0.00 | 0.00 | 60 | 1015.4 |
| 20260506201031 | 15 | 282 | 4.8 | 14.5 | 0.00 | 0.00 | 0.00 | 61 | 1015.4 |
| 20260506200945 | 15 | 62 | 4.8 | 14.5 | 0.00 | 0.00 | 0.00 | 62 | 1015.6 |
| 20260506200000 | 15 | 89 | 4.8 | 11.3 | 0.00 | 0.00 | 0.00 | 62 | 1015.7 |
| 20260506195918 | 15 | 100 | 4.8 | 14.5 | 0.00 | 0.00 | 0.00 | 64 | 1015.7 |
| 20260506194929 | 15 | 63 | 4.8 | 14.5 | 0.00 | 0.03 | 0.00 | 62 | 1015.8 |
| 20260506194401 | 15 | 340 | 4.8 | 11.3 | 0.00 | 0.03 | 0.00 | 62 | 1015.8 |
| 20260506193856 | 15 | 63 | 4.8 | 11.3 | 0.00 | 0.03 | 0.00 | 63 | 1016.0 |
| 20260506193357 | 15 | 72 | 4.8 | 14.5 | 0.00 | 0.03 | 0.00 | 62 | 1016.0 |
| 20260506192833 | 15 | 46 | 4.8 | 14.5 | 0.00 | 0.03 | 0.00 | 66 | 1016.0 |
| 20260506192332 | 15 | 86 | 3.2 | 11.3 | 0.00 | 0.03 | 0.00 | 66 | 1015.8 |
| 20260506191800 | 15 | 91 | 3.2 | 11.3 | 0.00 | 0.03 | 0.00 | 66 | 1016.0 |
| 20260506191257 | 15 | 23 | 3.2 | 11.3 | 0.00 | 0.03 | 0.00 | 64 | 1016.1 |
| 20260506190741 | 14 | 49 | 4.8 | 11.3 | 0.00 | 0.03 | 0.00 | 65 | 1016.0 |
| 20260506190715 | 14 | 61 | 4.8 | 11.3 | 0.00 | 0.03 | 0.00 | 66 | 1016.2 |
| 20260506185718 | 14 | 92 | 4.8 | 11.3 | 0.00 | 0.03 | 0.00 | 66 | 1016.2 |
| 20260506185153 | 14 | 30 | 4.8 | 14.5 | 0.00 | 0.03 | 0.00 | 66 | 1016.1 |
| 20260506184654 | 14 | 55 | 4.8 | 14.5 | 0.00 | 0.03 | 0.00 | 66 | 1016.2 |
| 20260506184128 | 14 | 81 | 4.8 | 11.3 | 0.00 | 0.03 | 0.00 | 68 | 1016.2 |
| 20260506183625 | 14 | 35 | 4.8 | 9.7 | 0.00 | 0.03 | 0.00 | 66 | 1016.4 |
| 20260506183059 | 14 | 234 | 4.8 | 16.1 | 0.00 | 0.03 | 0.00 | 66 | 1016.6 |
| 20260506182531 | 14 | 85 | 4.8 | 16.1 | 0.00 | 0.03 | 0.00 | 67 | 1016.6 |
| 20260506182029 | 13 | 100 | 3.2 | 9.7 | 0.00 | 0.03 | 0.00 | 67 | 1016.7 |
| 20260506181503 | 13 | 117 | 1.6 | 8.0 | 0.00 | 0.03 | 0.00 | 68 | 1017.0 |
| 20260506180936 | 13 | 113 | 1.6 | 6.4 | 0.00 | 0.03 | 0.00 | 68 | 1017.0 |
| 20260506180433 | 13 | 36 | 3.2 | 8.0 | 0.00 | 0.03 | 0.00 | 68 | 1017.0 |
| 20260506175907 | 13 | 123 | 3.2 | 11.3 | 0.00 | 0.05 | 0.00 | 68 | 1017.4 |
| 20260506175401 | 13 | 236 | 4.8 | 11.3 | 0.00 | 0.05 | 0.00 | 70 | 1017.4 |
| 20260506174859 | 13 | 39 | 6.4 | 12.9 | 0.00 | 0.05 | 0.00 | 68 | 1017.5 |
| 20260506174331 | 13 | 42 | 4.8 | 12.9 | 0.00 | 0.05 | 0.00 | 68 | 1017.6 |
| 20260506173803 | 13 | 186 | 3.2 | 9.7 | 0.00 | 0.05 | 0.00 | 69 | 1017.8 |
| 20260506173300 | 13 | 56 | 1.6 | 4.8 | 0.00 | 0.05 | 0.00 | 70 | 1017.9 |
| 20260506172732 | 12 | 89 | 3.2 | 8.0 | 0.00 | 0.05 | 0.00 | 69 | 1017.8 |
| 20260506172232 | 12 | 138 | 4.8 | 11.3 | 0.00 | 0.05 | 0.00 | 71 | 1017.7 |
| 20260506171729 | 12 | 85 | 4.8 | 11.3 | 0.00 | 0.05 | 0.00 | 69 | 1017.8 |
| 20260506171201 | 12 | 52 | 3.2 | 9.7 | 0.00 | 0.05 | 0.00 | 70 | 1017.8 |
| 20260506170701 | 12 | 96 | 1.6 | 9.7 | 0.00 | 0.05 | 0.00 | 70 | 1017.9 |
| 20260506170135 | 12 | 128 | 3.2 | 8.0 | 0.00 | 0.05 | 0.00 | 73 | 1017.8 |
| 20260506165634 | 11 | 86 | 4.8 | 14.5 | 0.00 | 0.05 | 0.00 | 72 | 1017.8 |
| 20260506165552 | 11 | 108 | 4.8 | 14.5 | 0.00 | 0.05 | 0.00 | 72 | 1017.7 |
| 20260506164543 | 11 | 69 | 4.8 | 14.5 | 0.00 | 0.05 | 0.00 | 72 | 1017.4 |
| 20260506164457 | 11 | 78 | 4.8 | 14.5 | 0.00 | 0.05 | 0.00 | 72 | 1017.3 |
| 20260506163510 | 11 | 20 | 4.8 | 12.9 | 0.00 | 0.05 | 0.00 | 72 | 1017.3 |
| 20260506162942 | 11 | 212 | 6.4 | 12.9 | 0.00 | 0.05 | 0.00 | 73 | 1017.0 |
| 20260506162416 | 11 | 98 | 6.4 | 17.7 | 0.00 | 0.05 | 0.00 | 71 | 1017.0 |
| 20260506161851 | 11 | 41 | 8.0 | 17.7 | 0.00 | 0.05 | 0.00 | 72 | 1016.7 |
| 20260506161812 | 11 | 66 | 9.7 | 20.9 | 0.00 | 0.05 | 0.00 | 73 | 1016.7 |
| 20260506160821 | 11 | 42 | 8.0 | 19.3 | 0.00 | 0.05 | 0.00 | 73 | 1016.6 |
| 20260506160259 | 11 | 65 | 6.4 | 14.5 | 0.00 | 0.05 | 0.00 | 74 | 1016.7 |
| 20260506160244 | 11 | 23 | 8.0 | 17.7 | 0.00 | 0.05 | 0.00 | 76 | 1016.6 |
| 20260506155241 | 11 | 49 | 8.0 | 17.7 | 0.00 | 0.05 | 0.00 | 76 | 1016.5 |
| 20260506155223 | 11 | 70 | 6.4 | 16.1 | 0.00 | 0.05 | 0.00 | 76 | 1016.6 |
| 20260506154212 | 10 | 25 | 6.4 | 16.1 | 0.00 | 0.05 | 0.00 | 78 | 1016.5 |
| 20260506154150 | 10 | 72 | 6.4 | 14.5 | 0.00 | 0.05 | 0.00 | 77 | 1016.3 |
| 20260506153631 | 10 | 167 | 6.4 | 12.9 | 0.00 | 0.05 | 0.00 | 78 | 1016.3 |
| 20260506152615 | 10 | 20 | 6.4 | 16.1 | 0.00 | 0.05 | 0.00 | 77 | 1016.4 |
| 20260506152113 | 10 | 134 | 6.4 | 16.1 | 0.00 | 0.05 | 0.00 | 77 | 1016.5 |
| 20260506151604 | 10 | 44 | 6.4 | 16.1 | 0.00 | 0.05 | 0.00 | 77 | 1016.5 |
| 20260506151549 | 10 | 70 | 6.4 | 16.1 | 0.00 | 0.05 | 0.00 | 78 | 1016.5 |
| 20260506150602 | 10 | 55 | 8.0 | 14.5 | 0.00 | 0.05 | 0.00 | 77 | 1016.7 |
| 20260506150057 | 10 | 26 | 8.0 | 14.5 | 0.00 | 0.05 | 0.00 | 77 | 1016.6 |
| 20260506145533 | 10 | 130 | 8.0 | 16.1 | 0.00 | 0.05 | 0.00 | 79 | 1016.2 |
| 20260506145006 | 10 | 58 | 8.0 | 16.1 | 0.00 | 0.05 | 0.00 | 78 | 1016.2 |
| 20260506144438 | 10 | 49 | 8.0 | 16.1 | 0.00 | 0.05 | 0.00 | 79 | 1016.5 |
| 20260506143912 | 10 | 18 | 8.0 | 16.1 | 0.00 | 0.05 | 0.00 | 79 | 1016.2 |
| 20260506143410 | 10 | 107 | 6.4 | 14.5 | 0.00 | 0.05 | 0.00 | 78 | 1016.2 |
| 20260506143345 | 10 | 33 | 4.8 | 14.5 | 0.00 | 0.05 | 0.00 | 78 | 1016.3 |
| 20260506142344 | 10 | 61 | 4.8 | 14.5 | 0.00 | 0.05 | 0.00 | 80 | 1016.1 |
| 20260506141847 | 10 | 97 | 6.4 | 16.1 | 0.00 | 0.05 | 0.00 | 81 | 1015.9 |
| 20260506141323 | 9 | 60 | 9.7 | 22.5 | 0.00 | 0.05 | 0.00 | 81 | 1015.9 |
| 20260506140815 | 9 | 79 | 6.4 | 22.5 | 0.00 | 0.05 | 0.00 | 80 | 1016.1 |
| 20260506140313 | 9 | 27 | 6.4 | 16.1 | 0.00 | 0.05 | 0.00 | 82 | 1016.2 |
| 20260506135745 | 9 | 143 | 8.0 | 20.9 | 0.00 | 0.05 | 0.00 | 82 | 1016.0 |
| 20260506135247 | 9 | 34 | 6.4 | 20.9 | 0.00 | 0.05 | 0.00 | 82 | 1016.0 |
| 20260506134726 | 9 | 53 | 6.4 | 12.9 | 0.00 | 0.05 | 0.00 | 83 | 1016.4 |
| 20260506134227 | 8 | 119 | 6.4 | 17.7 | 0.00 | 0.05 | 0.00 | 83 | 1016.4 |
| 20260506133725 | 8 | 41 | 6.4 | 17.7 | 0.00 | 0.05 | 0.00 | 83 | 1016.2 |
| 20260506133222 | 8 | 82 | 6.4 | 14.5 | 0.00 | 0.05 | 0.00 | 84 | 1016.3 |
| 20260506132652 | 8 | 160 | 6.4 | 16.1 | 0.00 | 0.05 | 0.00 | 84 | 1016.2 |
| 20260506132154 | 8 | 88 | 6.4 | 19.3 | 0.00 | 0.05 | 0.00 | 85 | 1015.9 |
| 20260506131650 | 8 | 55 | 6.4 | 19.3 | 0.00 | 0.05 | 0.00 | 85 | 1016.0 |
| 20260506131152 | 8 | 21 | 4.8 | 16.1 | 0.00 | 0.05 | 0.00 | 86 | 1016.1 |
| 20260506130649 | 8 | 118 | 6.4 | 16.1 | 0.00 | 0.05 | 0.00 | 86 | 1016.1 |
| 20260506130152 | 8 | 46 | 6.4 | 14.5 | 0.00 | 0.05 | 0.00 | 86 | 1016.0 |
| 20260506130116 | 8 | 93 | 4.8 | 14.5 | 0.00 | 0.05 | 0.00 | 87 | 1016.0 |
| 20260506125124 | 8 | 44 | 4.8 | 16.1 | 0.00 | 0.05 | 0.00 | 87 | 1016.0 |
| 20260506124609 | 8 | 85 | 6.4 | 16.1 | 0.00 | 0.05 | 0.00 | 87 | 1015.7 |
| 20260506124113 | 8 | 75 | 6.4 | 19.3 | 0.00 | 0.05 | 0.00 | 87 | 1015.8 |
| 20260506123548 | 8 | 56 | 4.8 | 19.3 | 0.00 | 0.05 | 0.00 | 87 | 1015.8 |
| 20260506123046 | 7 | 36 | 4.8 | 17.7 | 0.00 | 0.05 | 0.00 | 87 | 1015.9 |
| 20260506122545 | 7 | 78 | 4.8 | 17.7 | 0.00 | 0.05 | 0.00 | 87 | 1015.7 |
| 20260506122046 | 7 | 97 | 3.2 | 17.7 | 0.00 | 0.05 | 0.00 | 87 | 1015.6 |
| 20260506121545 | 7 | 89 | 3.2 | 6.4 | 0.00 | 0.05 | 0.00 | 87 | 1015.4 |
| 20260506121031 | 7 | 57 | 3.2 | 11.3 | 0.00 | 0.05 | 0.00 | 87 | 1015.4 |
| 20260506120502 | 7 | 85 | 3.2 | 11.3 | 0.00 | 0.05 | 0.00 | 87 | 1015.3 |
| 20260506120003 | 7 | 103 | 3.2 | 11.3 | 0.00 | 0.05 | 0.00 | 87 | 1015.3 |
| 20260506115502 | 7 | 53 | 3.2 | 11.3 | 0.00 | 0.05 | 0.00 | 87 | 1015.1 |
| 20260506115002 | 7 | 53 | 4.8 | 11.3 | 0.00 | 0.05 | 0.00 | 87 | 1015.1 |
| 20260506114456 | 7 | 54 | 4.8 | 11.3 | 0.00 | 0.05 | 0.00 | 87 | 1015.1 |
| 20260506113957 | 7 | 16 | 3.2 | 11.3 | 0.00 | 0.05 | 0.00 | 87 | 1015.2 |
| 20260506113459 | 7 | 250 | 3.2 | 11.3 | 0.00 | 0.05 | 0.00 | 86 | 1015.3 |
| 20260506112957 | 7 | 162 | 1.6 | 11.3 | 0.00 | 0.05 | 0.00 | 86 | 1015.2 |
| 20260506112438 | 7 | 139 | 3.2 | 11.3 | 0.00 | 0.05 | 0.00 | 86 | 1015.0 |
| 20260506111919 | 7 | 169 | 3.2 | 8.0 | 0.00 | 0.05 | 0.00 | 85 | 1015.0 |
| 20260506111839 | 7 | 98 | 3.2 | 12.9 | 0.00 | 0.05 | 0.00 | 85 | 1015.0 |
| 20260506110833 | 7 | 214 | 3.2 | 12.9 | 0.00 | 0.05 | 0.00 | 85 | 1014.8 |
| 20260506110311 | 7 | 157 | 1.6 | 6.4 | 0.00 | 0.05 | 0.00 | 85 | 1014.6 |
| 20260506105748 | 7 | 193 | 1.6 | 6.4 | 0.00 | 0.05 | 0.00 | 85 | 1014.6 |
| 20260506105249 | 7 | 91 | 1.6 | 9.7 | 0.00 | 0.05 | 0.00 | 85 | 1014.5 |
| 20260506104729 | 7 | 78 | 3.2 | 12.9 | 0.00 | 0.05 | 0.00 | 85 | 1014.3 |
| 20260506104706 | 7 | 153 | 3.2 | 12.9 | 0.00 | 0.05 | 0.00 | 85 | 1013.9 |
| 20260506103709 | 8 | 206 | 3.2 | 12.9 | 0.00 | 0.05 | 0.00 | 85 | 1013.8 |
| 20260506103204 | 7 | 108 | 3.2 | 12.9 | 0.00 | 0.05 | 0.00 | 85 | 1013.7 |
| 20260506102703 | 7 | 108 | 1.6 | 9.7 | 0.00 | 0.05 | 0.00 | 86 | 1013.7 |
| 20260506102652 | 8 | 22 | 3.2 | 9.7 | 0.00 | 0.05 | 0.00 | 86 | 1013.4 |
| 20260506101704 | 7 | 68 | 3.2 | 9.7 | 0.00 | 0.05 | 0.00 | 86 | 1013.4 |
| 20260506101654 | 8 | 103 | 3.2 | 9.7 | 0.00 | 0.05 | 0.00 | 86 | 1013.3 |
| 20260506100639 | 7 | 25 | 3.2 | 14.5 | 0.00 | 0.05 | 0.00 | 86 | 1013.1 |
| 20260506100631 | 7 | 20 | 3.2 | 9.7 | 0.00 | 0.05 | 0.00 | 86 | 1012.9 |
| 20260506095638 | 8 | 88 | 3.2 | 8.0 | 0.00 | 0.05 | 0.00 | 86 | 1012.7 |
| 20260506095121 | 8 | 358 | 3.2 | 8.0 | 0.00 | 0.05 | 0.00 | 87 | 1012.7 |
| 20260506094622 | 8 | 82 | 4.8 | 17.7 | 0.00 | 0.05 | 0.00 | 87 | 1012.6 |
| 20260506094059 | 8 | 41 | 6.4 | 17.7 | 0.00 | 0.05 | 0.00 | 86 | 1012.4 |
| 20260506093557 | 8 | 11 | 6.4 | 12.9 | 0.00 | 0.05 | 0.00 | 86 | 1012.3 |
| 20260506093042 | 8 | 55 | 6.4 | 19.3 | 0.00 | 0.05 | 0.00 | 86 | 1012.1 |
| 20260506092519 | 8 | 47 | 6.4 | 19.3 | 0.00 | 0.08 | 0.00 | 86 | 1012.1 |
| 20260506092020 | 8 | 15 | 6.4 | 16.1 | 0.00 | 0.08 | 0.00 | 86 | 1012.2 |
| 20260506091521 | 8 | 42 | 4.8 | 16.1 | 0.00 | 0.10 | 0.00 | 86 | 1012.2 |
| 20260506091017 | 8 | 55 | 4.8 | 16.1 | 0.00 | 0.10 | 0.00 | 86 | 1012.3 |
| 20260506090514 | 8 | 359 | 3.2 | 12.9 | 0.00 | 0.10 | 0.00 | 86 | 1012.4 |
| 20260506090013 | 8 | 12 | 4.8 | 12.9 | 0.00 | 0.10 | 0.00 | 86 | 1012.3 |
| 20260506085449 | 8 | 26 | 4.8 | 12.9 | 0.00 | 0.13 | 0.00 | 86 | 1012.3 |
| 20260506084941 | 8 | 41 | 4.8 | 12.9 | 0.00 | 0.15 | 0.00 | 86 | 1012.4 |
| 20260506084420 | 8 | 108 | 4.8 | 12.9 | 0.00 | 0.18 | 0.00 | 86 | 1012.3 |
| 20260506083913 | 8 | 54 | 6.4 | 12.9 | 0.00 | 0.20 | 0.00 | 86 | 1012.0 |
| 20260506083413 | 8 | 89 | 6.4 | 12.9 | 0.00 | 0.20 | 0.00 | 86 | 1012.1 |
| 20260506082915 | 8 | 38 | 4.8 | 17.7 | 0.00 | 0.25 | 0.00 | 86 | 1012.3 |
| 20260506082415 | 7 | 14 | 4.8 | 17.7 | 0.00 | 0.28 | 0.00 | 87 | 1012.3 |
| 20260506081911 | 7 | 128 | 4.8 | 11.3 | 0.00 | 0.46 | 0.00 | 87 | 1012.1 |
| 20260506081410 | 7 | 51 | 4.8 | 12.9 | 0.00 | 0.58 | 0.00 | 88 | 1012.0 |
| 20260506080910 | 7 | 21 | 4.8 | 12.9 | 0.00 | 0.64 | 0.00 | 87 | 1012.0 |
| 20260506080411 | 7 | 53 | 4.8 | 12.9 | 0.00 | 0.71 | 0.00 | 88 | 1012.0 |
| 20260506073308 | 7 | 99 | 6.4 | 16.1 | 0.00 | 1.35 | 0.00 | 90 | 1011.4 |
| 20260506072742 | 7 | 44 | 3.2 | 11.3 | 0.00 | 1.50 | 0.00 | 90 | 1011.6 |
| 20260506072219 | 7 | 155 | 4.8 | 17.7 | 0.00 | 1.63 | 0.00 | 91 | 1011.8 |
| 20260506072151 | 7 | 20 | 6.4 | 17.7 | 0.00 | 1.68 | 0.00 | 91 | 1011.5 |
| 20260506071139 | 7 | 47 | 6.4 | 14.5 | 0.00 | 1.75 | 0.00 | 92 | 1011.6 |
| 20260506070641 | 7 | 69 | 8.0 | 24.1 | 0.00 | 1.91 | 0.00 | 92 | 1011.8 |
| 20260506070137 | 7 | 62 | 8.0 | 24.1 | 0.00 | 1.93 | 0.00 | 92 | 1011.4 |
| 20260506062515 | 7 | 313 | 8.0 | 19.3 | 0.00 | 2.59 | 0.00 | 93 | 1012.1 |
| 20260506062018 | 7 | 71 | 8.0 | 19.3 | 0.00 | 2.62 | 0.00 | 93 | 1012.2 |
| 20260506061511 | 7 | 13 | 6.4 | 19.3 | 0.00 | 2.64 | 0.00 | 94 | 1012.2 |
| 20260506061012 | 7 | 49 | 8.0 | 16.1 | 0.00 | 2.64 | 0.00 | 94 | 1012.1 |
| 20260506060506 | 7 | 141 | 8.0 | 16.1 | 0.00 | 2.67 | 0.00 | 94 | 1012.1 |
| 20260506051248 | 7 | 38 | 3.2 | 9.7 | 0.00 | 2.69 | 0.00 | 93 | 1012.2 |
| 20260506050723 | 7 | 40 | 4.8 | 14.5 | 0.00 | 2.69 | 0.00 | 92 | 1012.0 |
| 20260506050215 | 7 | 70 | 4.8 | 14.5 | 0.00 | 2.69 | 0.00 | 92 | 1011.9 |
| 20260506044641 | 8 | 81 | 6.4 | 12.9 | 0.00 | 2.69 | 2.69 | 91 | 1011.9 |
| 20260506044626 | 8 | 133 | 6.4 | 14.5 | 0.00 | 2.69 | 2.69 | 91 | 1011.6 |
| 20260506043634 | 8 | 115 | 8.0 | 16.1 | 0.00 | 2.69 | 2.69 | 91 | 1011.6 |
| 20260506043107 | 8 | 26 | 8.0 | 16.1 | 0.00 | 2.69 | 2.69 | 91 | 1011.4 |
| 20260506042605 | 8 | 66 | 8.0 | 16.1 | 0.00 | 2.69 | 2.69 | 91 | 1011.4 |
| 20260506042035 | 8 | 331 | 8.0 | 24.1 | 0.00 | 2.69 | 2.69 | 92 | 1011.6 |
| 20260506041534 | 8 | 269 | 8.0 | 24.1 | 0.00 | 2.69 | 2.69 | 92 | 1011.8 |
| 20260506041036 | 8 | 93 | 6.4 | 17.7 | 0.00 | 2.69 | 2.69 | 92 | 1011.4 |
| 20260506040957 | 8 | 23 | 6.4 | 17.7 | 0.00 | 2.69 | 2.69 | 92 | 1011.2 |
| 20260506040005 | 8 | 56 | 6.4 | 20.9 | 0.00 | 2.69 | 2.69 | 93 | 1011.1 |
| 20260506035437 | 8 | 43 | 8.0 | 20.9 | 0.00 | 2.69 | 2.69 | 93 | 1011.2 |
| 20260506034934 | 8 | 86 | 8.0 | 19.3 | 0.00 | 2.69 | 2.69 | 93 | 1011.3 |
| 20260506034407 | 8 | 53 | 6.4 | 12.9 | 0.00 | 2.69 | 2.69 | 93 | 1010.8 |
| 20260506033903 | 8 | 53 | 4.8 | 16.1 | 0.00 | 2.69 | 2.69 | 93 | 1010.7 |
| 20260506033400 | 8 | 238 | 4.8 | 16.1 | 0.00 | 2.69 | 2.69 | 93 | 1010.7 |
| 20260506032853 | 8 | 26 | 4.8 | 11.3 | 0.00 | 2.69 | 2.69 | 93 | 1010.7 |
| 20260506032351 | 8 | 48 | 4.8 | 11.3 | 0.00 | 2.69 | 2.69 | 93 | 1010.7 |
| 20260506031824 | 8 | 62 | 4.8 | 11.3 | 0.00 | 2.69 | 2.69 | 93 | 1010.4 |
| 20260506031747 | 8 | 58 | 6.4 | 14.5 | 0.00 | 2.69 | 2.69 | 93 | 1010.3 |